Weather History for Dalton, GA

Change the Weather History Date:

Thursday, January 10, 2013

  Actual Average Record
Temperature  
Mean Temperature 58 °F -  
Max Temperature 66 °F 47 °F 70 °F (1965)
Min Temperature 50 °F 28 °F 7 °F (1962)
Degree Days  
Heating Degree Days 7    
Growing Degree Days 8 (Base 50)    
Moisture  
Dew Point 52 °F    
Average Humidity 88    
Maximum Humidity 100    
Minimum Humidity 68    
Precipitation  
Precipitation 0.00 in - - ()
Sea Level Pressure  
Sea Level Pressure 30.33 in    
Wind  
Wind Speed 3 mph (SE)    
Max Wind Speed 25 mph    
Max Gust Speed 31 mph    
Visibility 8 miles    
Events Rain    
Averages and records for this station are not official NWS values.
T = Trace of Precipitation, MM = Missing Value Source: NWS Daily Summary

Daily Weather History Graph

Daily Weather History Graph

Search for Another Location

Airport:

Trip Planner

Search our weather history database for the weather conditions in past years. The results will help you decide how hot, cold, wet, or windy it might be!

Date:

Astronomy

Jan. 10, 2013 Rise Set
Actual Time 7:47 AM EST 5:47 PM EST
Civil Twilight 7:19 AM EST 6:14 PM EST
Nautical Twilight 6:48 AM EST 6:46 PM EST
Astronomical Twilight 6:17 AM EST 7:16 PM EST
Moon 6:26 AM EST (1/10) 4:53 PM EST (1/10)
Length of Visible Light 10h 55m
Length of Day
10h 00m
Waning Crescent, 2% of the Moon is Illuminated
Jan 10
Waning Crescent
Jan 11
New
Jan 18
First Quarter
Jan 26
Full
Feb 3
Last Quarter

Hourly Weather History & Observations

Time (EST) Temp. Dew Point Humidity Pressure Visibility Wind Dir Wind Speed Gust Speed Precip Events Conditions
12:15 AM 50.0 °F 50.0 °F 100% 30.42 in 4.0 mi Calm Calm - N/A   Overcast
12:35 AM 50.0 °F 50.0 °F 100% 30.42 in 5.0 mi Calm Calm - N/A   Overcast
12:55 AM 50.0 °F 50.0 °F 100% 30.41 in 4.0 mi Calm Calm - N/A   Overcast
1:15 AM 50.0 °F 50.0 °F 100% 30.42 in 4.0 mi Calm Calm - N/A   Overcast
1:35 AM 50.0 °F 50.0 °F 100% 30.42 in 4.0 mi Calm Calm - N/A   Overcast
1:55 AM 50.0 °F 50.0 °F 100% 30.42 in 5.0 mi Calm Calm - N/A   Overcast
3:15 AM 50.0 °F 50.0 °F 100% 30.42 in 5.0 mi North 3.5 mph - N/A   Overcast
3:35 AM 50.0 °F 50.0 °F 100% 30.42 in 7.0 mi Calm Calm - N/A   Overcast
3:55 AM 50.0 °F 50.0 °F 100% 30.42 in 7.0 mi Calm Calm - N/A   Overcast
4:15 AM 50.0 °F 50.0 °F 100% 30.41 in 7.0 mi Calm Calm - N/A   Overcast
4:35 AM 50.0 °F 50.0 °F 100% 30.40 in 5.0 mi North 3.5 mph - N/A   Overcast
4:55 AM 50.0 °F 50.0 °F 100% 30.39 in 5.0 mi Calm Calm - N/A   Overcast
5:15 AM 50.0 °F 50.0 °F 100% 30.39 in 7.0 mi NNW 3.5 mph - N/A   Overcast
5:35 AM 50.0 °F 50.0 °F 100% 30.39 in 7.0 mi Calm Calm - N/A   Overcast
5:55 AM 50.0 °F 50.0 °F 100% 30.39 in 7.0 mi Calm Calm - N/A   Overcast
6:15 AM 50.0 °F 50.0 °F 100% 30.39 in 7.0 mi Calm Calm - N/A   Overcast
6:35 AM 50.0 °F 50.0 °F 100% 30.39 in 7.0 mi Calm Calm - N/A   Light Drizzle
6:55 AM 50.0 °F 50.0 °F 100% 30.39 in 7.0 mi Calm Calm - N/A   Overcast
7:15 AM 50.0 °F 50.0 °F 100% 30.39 in 7.0 mi NNW 3.5 mph - N/A   Overcast
7:35 AM 50.0 °F 50.0 °F 100% 30.39 in 7.0 mi Calm Calm - N/A   Overcast
7:55 AM 50.0 °F 50.0 °F 100% 30.40 in 7.0 mi Calm Calm - N/A   Overcast
8:35 AM 50.0 °F 50.0 °F 100% 30.39 in 5.0 mi Calm Calm - N/A   Overcast
8:55 AM 50.0 °F 50.0 °F 100% 30.40 in 5.0 mi Calm Calm - N/A   Overcast
9:35 AM 50.0 °F 50.0 °F 100% 30.40 in 7.0 mi North 3.5 mph - N/A   Overcast
9:55 AM 51.8 °F 50.0 °F 94% 30.40 in 5.0 mi NNW 3.5 mph - N/A   Overcast
10:15 AM 51.8 °F 51.8 °F 100% 30.41 in 5.0 mi Calm Calm - N/A   Overcast
10:35 AM 51.8 °F 51.8 °F 100% 30.41 in 7.0 mi NNW 4.6 mph - N/A   Overcast
10:55 AM 51.8 °F 51.8 °F 100% 30.41 in 7.0 mi Calm Calm - N/A   Overcast
11:15 AM 51.8 °F 51.8 °F 100% 30.41 in 7.0 mi Calm Calm - N/A   Overcast
11:35 AM 51.8 °F 51.8 °F 100% 30.40 in 7.0 mi North 3.5 mph - N/A   Overcast
11:55 AM 53.6 °F 51.8 °F 94% 30.39 in 7.0 mi Calm Calm - N/A   Overcast
12:15 PM 53.6 °F 51.8 °F 94% 30.37 in 7.0 mi Calm Calm - N/A   Overcast
12:35 PM 53.6 °F 51.8 °F 94% 30.35 in 7.0 mi Calm Calm - N/A   Overcast
12:55 PM 53.6 °F 51.8 °F 94% 30.34 in 10.0 mi Calm Calm - N/A   Overcast
1:15 PM 53.6 °F 51.8 °F 94% 30.34 in 10.0 mi Calm Calm - N/A   Overcast
1:35 PM 55.4 °F 53.6 °F 94% 30.32 in 10.0 mi Calm Calm - N/A   Overcast
1:55 PM 57.2 °F 53.6 °F 88% 30.32 in 10.0 mi Calm Calm - N/A   Overcast
2:15 PM 59.0 °F 55.4 °F 88% 30.32 in 10.0 mi Calm Calm - N/A   Overcast
2:35 PM 59.0 °F 55.4 °F 88% 30.30 in 10.0 mi Calm Calm - N/A   Overcast
2:55 PM 62.6 °F 57.2 °F 82% 30.30 in 10.0 mi Calm Calm - N/A   Overcast
3:15 PM 62.6 °F 57.2 °F 82% 30.30 in 10.0 mi SSE 4.6 mph - N/A   Overcast
3:35 PM 66.2 °F 55.4 °F 68% 30.30 in 10.0 mi SSE 6.9 mph - N/A   Overcast
3:55 PM 66.2 °F 55.4 °F 68% 30.30 in 10.0 mi South 6.9 mph - N/A   Overcast
4:15 PM 64.4 °F 53.6 °F 68% 30.30 in 10.0 mi SSE 9.2 mph - N/A   Overcast
4:35 PM 64.4 °F 53.6 °F 68% 30.29 in 10.0 mi SSE 12.7 mph 16.1 mph N/A   Overcast
4:55 PM 64.4 °F 53.6 °F 68% 30.28 in 10.0 mi SE 11.5 mph - N/A   Overcast
5:15 PM 64.4 °F 53.6 °F 68% 30.28 in 10.0 mi SSE 8.1 mph - N/A   Overcast
5:35 PM 64.4 °F 53.6 °F 68% 30.28 in 10.0 mi SE 11.5 mph 17.3 mph N/A   Overcast
5:55 PM 64.4 °F 53.6 °F 68% 30.29 in 10.0 mi SSE 8.1 mph - N/A   Overcast
6:15 PM 64.4 °F 53.6 °F 68% 30.28 in 10.0 mi SSE 9.2 mph - N/A   Overcast
6:35 PM 64.4 °F 53.6 °F 68% 30.27 in 10.0 mi SSE 9.2 mph - N/A   Overcast
6:55 PM 64.4 °F 53.6 °F 68% 30.27 in 10.0 mi SE 8.1 mph - N/A   Overcast
7:15 PM 62.6 °F 53.6 °F 72% 30.25 in 10.0 mi ESE 9.2 mph - N/A   Overcast
7:35 PM 62.6 °F 53.6 °F 72% 30.24 in 10.0 mi SSE 8.1 mph - N/A   Overcast
7:55 PM 62.6 °F 53.6 °F 72% 30.24 in 10.0 mi SSE 5.8 mph - N/A   Mostly Cloudy
8:15 PM 64.4 °F 53.6 °F 68% 30.25 in 10.0 mi SSE 10.4 mph - N/A   Overcast
8:35 PM 64.4 °F 53.6 °F 68% 30.26 in 10.0 mi SSE 17.3 mph 29.9 mph N/A   Overcast
8:55 PM 62.6 °F 55.4 °F 77% 30.26 in 7.0 mi SSE 16.1 mph 20.7 mph N/A   Drizzle
9:15 PM 60.8 °F 55.4 °F 82% 30.24 in 7.0 mi SE 11.5 mph 20.7 mph N/A Rain Light Rain
9:35 PM 60.8 °F 55.4 °F 82% 30.23 in 10.0 mi SSE 13.8 mph 20.7 mph N/A   Overcast
9:55 PM 60.8 °F 55.4 °F 82% 30.22 in 10.0 mi SE 13.8 mph 25.3 mph N/A   Overcast
10:15 PM 62.6 °F 55.4 °F 77% 30.22 in 10.0 mi SE 19.6 mph 25.3 mph N/A   Overcast
10:35 PM 62.6 °F 55.4 °F 77% 30.21 in 10.0 mi SE 13.8 mph 20.7 mph N/A   Overcast
10:55 PM 62.6 °F 55.4 °F 77% 30.20 in 10.0 mi SE 18.4 mph 25.3 mph N/A   Overcast
11:15 PM 62.6 °F 55.4 °F 77% 30.18 in 10.0 mi SSE 13.8 mph 25.3 mph N/A   Overcast
11:35 PM 62.6 °F 55.4 °F 77% 30.18 in 10.0 mi SE 18.4 mph 27.6 mph N/A   Overcast
11:55 PM 60.8 °F 57.2 °F 88% 30.17 in 10.0 mi SE 25.3 mph 31.1 mph N/A   Overcast